This is the latest recevied weather packets stored in our database for station/object VK3VJP-13. If no packets are shown the sender has not sent any weather packets the latest 10 day(s).
| Time | Temp. | Humidity | Pressure | Rain* | Wind** | Luminosity | Snow |
|---|---|---|---|---|---|---|---|
| 1778122379 | 6.67° C | 90% | 1022.9 hPa | 0.51 mm | - | - | - |
| 1778122079 | 6.67° C | 89% | 1022.9 hPa | 0.51 mm | - | - | - |
| 1778121779 | 6.11° C | 90% | 1022.8 hPa | 0.51 mm | - | - | - |
| 1778121479 | 6.11° C | 89% | 1023 hPa | 0.51 mm | - | - | - |
| 1778121179 | 6.11° C | 88% | 1023 hPa | 0.51 mm | - | - | - |
| 1778120879 | 6.11° C | 87% | 1023.2 hPa | 0.51 mm | - | - | - |
| 1778120579 | 6.67° C | 87% | 1023.3 hPa | 0.51 mm | - | - | - |
| 1778120279 | 6.67° C | 85% | 1023.3 hPa | 0.25 mm | - | - | - |
| 1778119979 | 7.22° C | 84% | 1023 hPa | 0 mm | - | - | - |
| 1778119679 | 7.22° C | 83% | 1022.9 hPa | 0 mm | - | - | - |
| 1778119379 | 7.22° C | 84% | 1022.9 hPa | 0 mm | - | - | - |
| 1778119079 | 6.67° C | 84% | 1022.8 hPa | 0 mm | - | - | - |
| 1778118779 | 6.67° C | 86% | 1023 hPa | 0 mm | - | - | - |
| 1778118480 | 6.67° C | 87% | 1023 hPa | 0 mm | - | - | - |
| 1778118179 | 6.67° C | 88% | 1023 hPa | 0 mm | - | - | - |
| 1778117879 | 6.67° C | 86% | 1023 hPa | 0 mm | - | - | - |
| 1778117579 | 6.67° C | 89% | 1022.9 hPa | 0 mm | - | - | - |
| 1778117279 | 6.11° C | 89% | 1023.1 hPa | 0 mm | - | - | - |
| 1778116979 | 6.11° C | 89% | 1023.1 hPa | 0 mm | - | - | - |
| 1778116679 | 5.56° C | 90% | 1023.1 hPa | 0 mm | - | - | - |
| 1778116379 | 5.56° C | 90% | 1023.1 hPa | 0 mm | - | - | - |
| 1778116079 | 5.56° C | 90% | 1023.1 hPa | 0 mm | - | - | - |
| 1778115779 | 5.56° C | 90% | 1023.1 hPa | 0 mm | - | - | - |
| 1778115479 | 5.56° C | 91% | 1023.2 hPa | 0 mm | - | - | - |
| 1778115179 | 5° C | 91% | 1023.2 hPa | 0 mm | - | - | - |
* Rain latest hour (hover to see other rain measurements)
** Current wind speed in m/s (hover to see current wind gust speed)